Date String (YYYY-MM-DD hh:mm:ss) UTC,Instrument flags,Ambient pressure (hPa),Sample flow (lpm),Bypass flow (lpm),Sample temperature (°C),Ambient temperature (°C),ASC tube jacket temperature (°C),LED temperature (°C),Box temperature (°C),Sample RH (%),Span deviation,Mass concentration (μg/m³),Mass concentration (μg/m³),Mass concentration (μg/m³)
DateTimeUTC,F1_M11,P_M11,Q1_M11,Q2_M11,T1_M11,T2_M11,T3_M11,T4_M11,T5_M11,U1_M11,ZSPAN_M11,X2_M11,X0_M11,X1_M11
2023-02-01 07:00:00,,0825.2,5.04,0.00,22.0,21.6,00.0,30.8,23.9,07.4,0000.9,0012.98,0023.26,0011.80
2023-02-01 07:01:00,,0825.2,5.00,0.00,22.2,22.6,00.0,30.8,24.1,07.5,0000.8,0012.62,0022.83,0011.46
2023-02-01 07:02:00,,0825.2,4.98,0.00,22.2,22.5,00.0,30.9,24.2,07.5,0000.7,0012.29,0021.46,0011.14
2023-02-01 07:03:00,,0825.2,5.01,0.00,22.2,21.8,00.0,31.0,24.0,07.4,0000.6,0011.95,0020.94,0010.85
2023-02-01 07:04:00,,0825.2,4.98,0.00,22.2,21.2,00.0,31.0,23.9,07.5,0001.0,0011.54,0020.36,0010.47
2023-02-01 07:05:00,,0825.2,5.03,0.00,22.1,20.8,00.0,31.0,23.8,07.4,0000.8,0011.31,0020.02,0010.31
2023-02-01 07:06:00,,0825.2,4.98,0.00,22.1,20.4,00.0,31.0,23.7,07.3,0000.5,0011.54,0019.57,0010.55
2023-02-01 07:07:00,,0825.2,5.04,0.00,22.0,20.1,00.0,31.0,23.6,07.3,0001.1,0011.75,0019.42,0010.78
2023-02-01 07:08:00,,0825.1,4.95,0.00,22.0,20.0,00.0,30.9,23.6,07.2,0001.9,0011.86,0019.10,0010.90
2023-02-01 07:09:00,,0825.1,5.05,0.00,22.0,20.3,00.0,30.9,23.6,07.2,0002.3,0012.17,0019.70,0011.20
2023-02-01 07:10:00,,0825.1,5.00,0.00,22.1,21.5,00.0,30.9,23.9,07.3,0002.4,0012.36,0020.20,0011.36
2023-02-01 07:11:00,,0825.2,5.02,0.00,22.2,22.6,00.0,30.9,24.1,07.4,0002.6,0012.30,0020.02,0011.31
2023-02-01 07:12:00,,0825.2,4.99,0.00,22.3,22.6,00.0,30.9,24.2,07.4,0002.8,0012.36,0020.55,0011.36
2023-02-01 07:13:00,,0825.3,5.00,0.00,22.3,22.1,00.0,31.0,24.2,07.4,0002.4,0012.50,0020.52,0011.48
2023-02-01 07:14:00,,0825.2,5.00,0.00,22.3,21.7,00.0,31.0,24.1,07.4,0002.4,0012.73,0021.71,0011.67
2023-02-01 07:15:00,,0825.2,5.01,0.00,22.3,21.4,00.0,31.0,24.0,07.4,0002.3,0012.98,0022.27,0011.86
2023-02-01 07:16:00,,0825.2,5.05,0.00,22.2,21.2,00.0,31.0,23.9,07.4,0002.3,0013.18,0022.39,0012.03
2023-02-01 07:17:00,,0825.2,4.95,0.00,22.2,21.0,00.0,31.0,23.9,07.4,0002.6,0013.02,0022.08,0011.87
2023-02-01 07:18:00,,0825.2,5.02,0.00,22.2,20.9,00.0,31.0,23.9,07.4,0002.7,0012.71,0021.56,0011.55
2023-02-01 07:19:00,,0825.2,4.95,0.00,22.2,20.8,00.0,31.0,23.9,07.4,0002.7,0012.38,0021.36,0011.24
2023-02-01 07:20:00,,0825.2,5.06,0.00,22.1,20.7,00.0,31.0,23.8,07.4,0002.0,0012.03,0020.69,0010.89
2023-02-01 07:21:00,,0825.3,4.98,0.00,22.1,20.6,00.0,31.0,23.8,07.4,0001.8,0011.69,0020.77,0010.58
2023-02-01 07:22:00,,0825.2,4.99,0.00,22.1,20.5,00.0,31.0,23.8,07.4,0002.3,0011.45,0020.82,0010.36
2023-02-01 07:23:00,,0825.1,4.98,0.00,22.1,20.6,00.0,31.0,23.8,07.4,0001.7,0011.19,0020.14,0010.17
2023-02-01 07:24:00,,0825.1,5.02,0.00,22.1,21.4,00.0,31.0,24.0,07.4,0001.6,0010.99,0019.80,0009.98
2023-02-01 07:25:00,,0825.2,5.00,0.00,22.3,22.5,00.0,31.0,24.2,07.3,0001.7,0010.90,0019.27,0009.87
2023-02-01 07:26:00,,0825.2,4.99,0.00,22.4,23.1,00.0,31.0,24.4,07.2,0001.3,0010.77,0018.75,0009.77
2023-02-01 07:27:00,,0825.2,4.99,0.00,22.4,22.7,00.0,31.1,24.4,07.2,0001.5,0010.68,0019.53,0009.69
2023-02-01 07:28:00,,0825.2,4.99,0.00,22.4,22.2,00.0,31.1,24.3,07.1,0002.0,0010.73,0019.64,0009.72
2023-02-01 07:29:00,,0825.2,4.99,0.00,22.4,21.8,00.0,31.1,24.2,07.2,0001.5,0010.94,0019.79,0009.94
2023-02-01 07:30:00,,0825.2,5.00,0.00,22.4,21.5,00.0,31.2,24.1,07.2,0000.9,0011.20,0019.98,0010.18
2023-02-01 07:31:00,,0825.2,4.99,0.00,22.4,21.2,00.0,31.2,24.1,07.1,0001.0,0011.33,0020.17,0010.36
2023-02-01 07:32:00,,0825.2,5.00,0.00,22.4,21.0,00.0,31.2,24.1,07.2,0001.3,0011.56,0020.03,0010.56
2023-02-01 07:33:00,,0825.2,4.99,0.00,22.3,20.8,00.0,31.2,24.0,07.3,0001.0,0011.86,0019.95,0010.83
2023-02-01 07:34:00,,0825.2,4.95,0.00,22.3,20.7,00.0,31.2,24.0,07.3,0001.4,0012.18,0020.90,0011.11
2023-02-01 07:35:00,,0825.2,5.04,0.00,22.3,20.6,00.0,31.2,23.9,07.2,0001.7,0012.43,0021.49,0011.32
2023-02-01 07:36:00,,0825.2,4.97,0.00,22.2,20.5,00.0,31.1,23.9,07.3,0001.6,0012.54,0021.34,0011.48
2023-02-01 07:37:00,,0825.2,5.03,0.00,22.2,20.6,00.0,31.1,23.9,07.3,0001.8,0012.68,0021.38,0011.62
2023-02-01 07:38:00,,0825.2,4.96,0.00,22.3,21.5,00.0,31.1,24.1,07.3,0001.8,0012.78,0020.69,0011.74
2023-02-01 07:39:00,,0825.2,5.02,0.00,22.4,22.5,00.0,31.1,24.4,07.2,0001.6,0012.78,0020.63,0011.78
2023-02-01 07:40:00,,0825.1,5.00,0.00,22.5,22.9,00.0,31.1,24.5,07.2,0001.6,0012.70,0021.15,0011.71
2023-02-01 07:41:00,,0825.1,4.98,0.00,22.5,22.5,00.0,31.2,24.5,07.2,0001.8,0012.57,0021.14,0011.61
2023-02-01 07:42:00,,0825.2,4.99,0.00,22.5,22.1,00.0,31.2,24.4,07.1,0001.9,0012.54,0021.86,0011.53
2023-02-01 07:43:00,,0825.2,4.99,0.00,22.5,21.7,00.0,31.2,24.3,07.1,0001.9,0012.50,0022.11,0011.47
2023-02-01 07:44:00,,0825.2,4.98,0.00,22.5,21.3,00.0,31.3,24.2,07.2,0001.6,0012.46,0022.32,0011.40
2023-02-01 07:45:00,,0825.1,4.99,0.00,22.4,21.1,00.0,31.3,24.1,07.2,0001.3,0012.36,0021.86,0011.31
2023-02-01 07:46:00,,0825.0,5.01,0.00,22.4,20.8,00.0,31.2,24.0,07.2,0001.3,0012.36,0021.51,0011.31
2023-02-01 07:47:00,,0824.9,4.99,0.00,22.3,20.8,00.0,31.2,24.0,07.2,0001.8,0012.37,0022.32,0011.30
2023-02-01 07:48:00,,0825.0,5.03,0.00,22.3,20.7,00.0,31.2,24.0,07.1,0001.6,0012.34,0023.06,0011.25
2023-02-01 07:49:00,,0825.2,4.96,0.00,22.3,20.7,00.0,31.2,23.9,07.2,0001.8,0012.31,0023.32,0011.20
2023-02-01 07:50:00,,0825.2,5.02,0.00,22.3,20.6,00.0,31.2,23.9,07.2,0001.2,0012.36,0023.70,0011.26
2023-02-01 07:51:00,,0825.2,5.01,0.00,22.3,21.3,00.0,31.2,24.1,07.3,0000.9,0012.42,0023.60,0011.32
2023-02-01 07:52:00,,0825.2,4.99,0.00,22.4,22.3,00.0,31.2,24.3,07.3,0000.8,0012.60,0023.78,0011.46
2023-02-01 07:53:00,,0825.2,4.99,0.00,22.5,23.0,00.0,31.2,24.6,07.2,0000.6,0012.71,0023.15,0011.58
2023-02-01 07:54:00,,0825.2,5.00,0.00,22.6,22.6,00.0,31.2,24.5,07.2,0000.2,0012.83,0022.73,0011.75
2023-02-01 07:55:00,,0825.2,5.00,0.00,22.6,22.0,00.0,31.3,24.4,07.2,0000.0,0013.04,0022.55,0011.97
2023-02-01 07:56:00,,0825.2,5.01,0.00,22.5,21.6,00.0,31.3,24.2,07.2,-000.0,0013.19,0022.72,0012.13
2023-02-01 07:57:00,,0825.1,5.00,0.00,22.5,21.3,00.0,31.3,24.1,07.3,0000.0,0013.25,0022.49,0012.23
2023-02-01 07:58:00,,0825.2,5.02,0.00,22.4,21.0,00.0,31.3,24.1,07.3,-000.6,0013.48,0022.35,0012.45
2023-02-01 07:59:00,,0825.2,5.03,0.00,22.4,20.8,00.0,31.3,24.0,07.4,-000.7,0013.67,0022.28,0012.65
